Weather in Barda

Russia / Perm Krai     56°55′37″N   55°35′29″E
temp.,
°C
wind,
m/s
gust,
m/s
humid.,
%
clouds,
%
prec.,
mm/h
press.,
hPa
HPBL,
m
3 march, wed
wed323:00−7s51095100 1.4 996347
02:00−7s3596100 0.6 996116
05:00−4wsw4896100 1.9 996297
08:00−6wsw379793 0.2 996189
11:00−4wsw469591 0.3 997321
14:00−2wsw469496 0.1 997548
17:00−1sw479697 0.8 998469
20:00−3wsw2598100 1.4 998183
4 march, thu
thu423:00−6wnw4993100 2.1 999342
02:00−9wnw4994100 0.3 998261
05:00−12w389795 0.3 999172
08:00−14wsw369896 0.0 999134
11:00−9sw489396 0.1 999357
14:00−6ssw61092100 0.1 997566
17:00−6ssw61192100 0.4 995599
20:00−6s41295100 0.4 993617
5 march, fri
fri523:00−6sse61295100 1.9 990728
02:00−4wsw4995100 1.6 990410
05:00−10wsw359674 1.6 99389
08:00−6wsw51293100 0.4 996561
11:00−6w5991100 0.5 998555
14:00−5wsw4688100 0.1 999621
17:00−6w4686100 0.1 1001653
20:00−13nw369477 0.0 1003119
6 march, sat
sat623:00−16wnw389438 0.0 1006168
02:00−18wnw37961 0.0 1008138
05:00−20wsw33991 0.0 101052
08:00−19sw349968 0.0 101185
11:00−13sw479384 0.2 1011348
14:00−9sw4790100 0.2 1011636
17:00−8sw4791100 0.4 1009597
20:00−11ssw3895100 0.1 1008210
7 march, sun
sun723:00−13s2596100 0.4 1008144
02:00−14s1297100 0.3 100624
05:00−14ssw1297100 0.5 100521
08:00−15wnw2397100 0.4 100587
11:00−15wnw359498 0.5 1006276
14:00−14w458894 0.0 1008597
17:00−14w458597 0.1 1008740
20:00−17ssw3396100 0.1 100958